Location: El Atico
(3.0014°N, 75.4378°W)
Time: 11:38:51
(UTC+00:00)

SL-16 R/B - Pass Details

Date: 09 December 2025
Orbit: 842 x 844 km, 71.0° (Epoch: 25 January)

Event Time Altitude Azimuth Distance (km) Brightness Sun altitude
Rises 23:14:11 0° 181° (S) 3,391 5.7 -5.7°
Reaches altitude 10° 23:16:46 10° 173° (S) 2,455 4.8 -6.3°
Maximum altitude 23:22:00 40° 105° (ESE) 1,228 2.7 -7.5°
Drops below altitude 10° 23:27:12 10° 37° (NE) 2,449 4.1 -8.7°
Enters shadow 23:28:27 - 33° (NNE) 2,893 4.5 -9.0°
